Find Starlink 5032

NORAD ID: 53895 Int'l Des: 2022-119 Owner: SPXS Country: US Constellation: starlink operational
LEOCIRCULAR

实时位置

正在加载3D地球...

关于 Starlink 5032

正在加载描述...

即将过境

Passes for default location (London). Set your location on the main map for personalized predictions.

高度历史

Loading altitude history...

两行轨道根数

1 53895U 22119K 26125.50001156 .00586652 00000-0 88453-2 0 9991
2 53895 53.2183 61.1072 0001323 77.9894 326.0953 15.52164378 5739
Epoch: May 5, 2026 • Age: 7 hours

当前状态

高度 410.0 km
速度 7.67 km/s
星下点 21.99°N, 78.98°E
发射日期 Sep 24, 2022
运行时间 3.6 years
类型 internet

技术详情

分类 Payload
质量 305.00 kg
干质量 290.00 kg
总质量 305.00 kg
长度 0.20 m
直径 2.80 m
跨度 9.00 m
形状 Box + pan
制造商 SPXS
平台类型 Starlink
阶段状态 In Orbit
所有者/国家 SPXS/US

Most Searched